Home   Weather   Bilbao   Past weeks

Flag for Spain Past Weather in Bilbao, Spain — Yesterday and Last 2 Weeks

63 °F

Passing clouds.

Feels Like: 63 °F
Forecast: 45 / 75 °F
Wind: 8 mph from East

Location: Bilbao / Sondica

Current Time: Oct 21, 2016 at 4:51:33 PM

Latest Report: Oct 21, 2016 at 4:00 PM

Visibility: N/A

Pressure: 29.98 "Hg

Humidity: 42%

Dew Point: 39 °F

Location of BilbaoLocation

Past Weather in Bilbao — Graph


Bilbao Temperature Yesterday

Maximum temperature yesterday: 61 °F (at 2:00 PM)
Minimum temperature yesterday: 46 °F (at 11:30 PM)
Average temperature yesterday: 55 °F

High & Low Weather Summary for the Past Weeks

High77 °F (Oct 15, 3:30 PM)100% (Oct 7, 8:00 AM)30.36 "Hg (Oct 7, 8:00 AM)
Low43 °F (Oct 11, 8:00 AM)36% (Oct 15, 5:30 PM)29.53 "Hg (Oct 13, 4:00 AM)
Average60 °F78%30.01 "Hg
* Reported Oct 6 3:00 PM — Oct 21 3:30 PM, Bilbao, Weather by CustomWeather, © 2016

Note: Actual official high and low records may vary slightly from our data, if they occured in-between our weather recording intervals... More about our weather records


Bilbao Weather History for the Previous 24 Hours

Scroll right to see more
Time TempWeatherWind HumidityBarometerVisibility
3:30 PM
Fri, Oct 21
63 °FPassing clouds.8 mph42%29.98 "HgN/A
3:00 PM63 °FPassing clouds.10 mph42%30.01 "HgN/A
2:30 PM63 °FPassing clouds.13 mph49%30.01 "HgN/A
2:00 PM61 °FPassing clouds.10 mph45%30.04 "HgN/A
1:30 PM61 °FPassing clouds.9 mph45%30.04 "HgN/A
1:00 PM61 °FPassing clouds.5 mph52%30.07 "HgN/A
12:30 PM59 °FSunny.No wind63%30.07 "Hg10 mi
12:00 PM57 °FSunny.No wind67%30.07 "Hg10 mi
11:30 AM52 °FSunny.2 mph82%30.07 "Hg10 mi
11:00 AM50 °FClear.3 mph82%30.07 "Hg4 mi
10:30 AM46 °FPassing clouds.3 mph93%30.07 "Hg4 mi
10:00 AM45 °FClear.3 mph93%30.07 "Hg4 mi
9:30 AM45 °FClear.3 mph93%30.07 "Hg4 mi
9:00 AM43 °FSunny.3 mph93%30.07 "Hg10 mi
8:30 AM43 °FPassing clouds.5 mph93%30.07 "HgN/A
8:00 AM43 °FPassing clouds.3 mph100%30.07 "HgN/A
7:30 AM43 °FClear.3 mph100%30.04 "Hg10 mi
7:00 AM43 °FClear.3 mph100%30.07 "Hg10 mi
6:30 AM45 °FClear.3 mph93%30.07 "Hg10 mi
6:00 AM45 °FClear.2 mph93%30.07 "Hg10 mi
5:30 AM45 °FClear.3 mph93%30.07 "Hg10 mi
5:00 AM45 °FPassing clouds.3 mph93%30.07 "HgN/A
4:30 AM45 °FPassing clouds.1 mph93%30.07 "HgN/A
4:00 AM46 °FPassing clouds.1 mph93%30.07 "HgN/A
3:30 AM46 °FPassing clouds.1 mph93%30.09 "HgN/A
3:00 AM48 °FPassing clouds.2 mph87%30.09 "HgN/A
2:30 AM48 °FPassing clouds.2 mph87%30.09 "HgN/A
2:00 AM48 °FPassing clouds.3 mph87%30.09 "HgN/A
1:30 AM46 °FPartly cloudy.3 mph93%30.09 "HgN/A
1:00 AM46 °FPassing clouds.2 mph93%30.09 "HgN/A
12:30 AM46 °FPassing clouds.2 mph87%30.09 "HgN/A
12:00 AM45 °FQuite cool.2 mph93%30.09 "HgN/A
11:30 PM
Thu, Oct 20
46 °FClear.3 mph93%30.12 "Hg10 mi
11:00 PM48 °FPassing clouds.3 mph87%30.09 "HgN/A
10:30 PM48 °FPassing clouds.3 mph87%30.09 "HgN/A
10:00 PM48 °FPassing clouds.2 mph87%30.09 "HgN/A
9:30 PM50 °FPassing clouds.1 mph82%30.09 "HgN/A
9:00 PM52 °FPassing clouds.1 mph77%30.09 "HgN/A
8:30 PM54 °FPassing clouds.1 mph77%30.09 "HgN/A
8:00 PM55 °FPassing clouds.No wind72%30.09 "HgN/A
7:30 PM57 °FPassing clouds.1 mph67%30.09 "HgN/A
7:00 PM59 °FPartly sunny.2 mph55%30.09 "HgN/A
6:30 PM59 °FPartly sunny.2 mph55%30.09 "HgN/A
6:00 PM59 °FPartly sunny.5 mph59%30.09 "HgN/A
5:30 PM61 °FPartly sunny.2 mph55%30.09 "HgN/A
5:00 PM61 °FPartly sunny.2 mph59%30.09 "HgN/A
4:30 PM61 °FPartly sunny.6 mph63%30.09 "HgN/A
4:00 PM61 °FPartly sunny.6 mph59%30.09 "HgN/A
Weather by CustomWeather, © 2016

See weather overviewHow to use our weather pages